Showing default

SENTINEL 1A, 39634

Orbit data source: Space-Track

SENTINEL 1A, 39634 is a payload satellite owned by ESA (ESA) in SSO that was launched on Thu, 03 Apr 2014 UTC via a SOYUZ-ST-A launch vehicle from the French Guiana (FRGUI). Payload-class satellites include a variety of spacecraft equipped with specific instruments for various scientific and technological missions. These include communications satellites like Starlink; space stations such as the ISS; scientific satellites like the Hubble; Earth observation satellites from companies like Planet Labs, Umbra, and HawkEye 360; GPS; miniature CubeSats for education and research; and military/defense satellites.

Loading next visibility...
Identifier
39634, 2014-016A
Orbit
SSO
Country
Flag of ESAESA
Related business
Manufacturer
Thales Alenia
Mission
Operational Civil Radar Imaging
Bus & Motor
PRIMA, AOCS
Mass
2,157 kg wet, 2,027 kg dry
Launch date (UTC)
2014-04-03 (12 years ago)
Launch vehicle
SOYUZ-ST-A
Launch site
French Guiana (FRGUI)
Object type
Payload
Rocket body
Debris
Shape & HBR
Box + 4 Pan, 10.5 m
Radar Cross Section
37.595 m², Large (>1 m²)

Expand to show TLE details & history
Last TLE update: 1 day ago

TLE from 1 day ago
0 SENTINEL 1A
1 39634U 14016A   26172.48177712  .00000452  00000-0  10548-3 0  9994
2 39634  98.1781 179.9521 0001391  81.1545 278.9812 14.59201426650645
Epoch: 2026-06-21T11:33Z
TLE epoch observation values (Epoch: 2026-06-21T11:33:45.543Z)
Latitude
-0.00002°
Longitude
96.83092°
Altitude
698.585 km
Speed
7.507 km/s
True Right ascension
11h 59m 48s
True Declination
0° 00' 00"
Sunlit
Object was in daylight at epoch
Visualization orbit readout
Latitude
Unknown
Longitude
Unknown
Altitude
Unknown
Speed
Unknown
Apparent Right ascension
Unknown
Apparent Declination
Unknown
Sunlit
N/A
Visualization observer readout
Local Sidereal Time
23:18:27
Azimuth
Unknown
Elevation
Unknown
Doppler factor
Unknown
Orbital elements
Apogee altitude
693.819 km
Perigee altitude
691.851 km
Semi-major axis
7,070.972 km
Eccentricity
0.00014
Inclination
98.1781°
RAAN
179.9521°
Arg. of periapsis
81.1545°
True anomaly
278.96546°
Mean anomaly
278.9812°
Eccentric anomaly
278.97333°
Mean motion
3.65027 °/min
Orbital period
98.62 mins
BSTAR
0.00010548
Loading maneuver chart data...
Computing Atmospheric mass density...
Loading historical data...
Loading historical data...
Loading historical data...
Loading historical data...
Loading historical data...
Loading historical data...
Loading historical data...

Documentation

Showing up to 5 results
|